Voltar ao catálogo

ARIANE 44L R/B

AtivoHEO
NORAD 26696·ROCKET BODY·🇫🇷 France

Lançado Feb 7, 2001 de Guiana Space Centre

Loading…

Próximas Passagens (próximas 24 horas)

TLE

AtualizadoSource: Space-Track

Época: Sep 14, 2026, 10:45 UTC

1 26696U 01005C   26257.44805592  .00001193  00000-0  89397-3 0  9997
2 26696   7.3982   8.6031 6882707 272.0501  17.2958  2.75578525232008

Acompanhe ARIANE 44L R/B em tempo real com AllMySat

Download on the App Store